User: anonymous   Login
Location: Campillo
(40.8621°N, 4.2488°W)
Time: 11:37:00
(UTC+00:00)
Language:

Cosmos 1943 Rocket - Orbit

View from above orbital plane
View from above orbital plane
View from above satellite
View from above satellite

Ground track
Ground track

The orbit data is extracted from the following two-line orbital elements,

1 19120U 88039B   21211.84438469 -.00000149  00000-0 -48107-4 0  9994
2 19120  71.0156  25.5664 0020594  36.2858 323.9658 14.19223752719598
Epoch (UTC): 30 July 2021 20:15:54
Eccentricity: 0.0020594
inclination: 71.0156°
perigee height: 813 km
apogee height: 843 km
right ascension of ascending node: 25.5664°
argument of perigee: 36.2858°
revolutions per day: 14.19223752
mean anomaly at epoch: 323.9658°
orbit number at epoch: 71959

The dashed part of the orbit path shows where the satellite is in the earth's shadow,  

DLR